This is the latest recevied weather packets stored in our database for station/object KD4WLE. If no packets are shown the sender has not sent any weather packets the latest 1 day(s).
| Time | Temp. | Humidity | Pressure | Rain* | Wind** | Luminosity | Snow |
|---|---|---|---|---|---|---|---|
| 1778030245 | 22.22° C | 77% | 1016.8 hPa | 0 mm | - | 0 W/m² | - |
| 1778029941 | 22.78° C | 76% | 1016.6 hPa | 0 mm | - | 0 W/m² | - |
| 1778029640 | 22.78° C | 75% | 1016.5 hPa | 0 mm | - | 0 W/m² | - |
| 1778029337 | 22.78° C | 75% | 1016.5 hPa | 0 mm | - | 0 W/m² | - |
| 1778029034 | 22.78° C | 74% | 1016.5 hPa | 0 mm | - | 0 W/m² | - |
| 1778027517 | 23.33° C | 73% | 1016.1 hPa | 0 mm | - | 0 W/m² | - |
| 1778027212 | 23.33° C | 71% | 1016.2 hPa | 0 mm | - | 0 W/m² | - |
| 1778026604 | 23.33° C | 69% | 1016.3 hPa | 0 mm | - | 0 W/m² | - |
| 1778026302 | 23.33° C | 68% | 1016.1 hPa | 0 mm | - | 0 W/m² | - |
| 1778026000 | 23.33° C | 68% | 1016.2 hPa | 0 mm | - | 1 W/m² | - |
| 1778022368 | 25.56° C | 56% | 1016.1 hPa | 0 mm | - | 55 W/m² | - |
| 1778020851 | 26.67° C | 53% | 1016.3 hPa | 0 mm | - | 81 W/m² | - |
| 1778020548 | 26.11° C | 54% | 1016.4 hPa | 0 mm | - | 126 W/m² | - |
| 1778020244 | 26.67° C | 56% | 1016.3 hPa | 0 mm | - | 141 W/m² | - |
| 1778016306 | 26.67° C | 55% | 1016.1 hPa | 0 mm | - | 347 W/m² | - |
| 1778014790 | 27.22° C | 55% | 1016.1 hPa | 0 mm | - | 433 W/m² | - |
| 1778014185 | 26.67° C | 54% | 1016.4 hPa | 0 mm | - | 417 W/m² | - |
| 1778013884 | 26.67° C | 52% | 1016 hPa | 0 mm | - | 301 W/m² | - |
| 1778012366 | 27.22° C | 53% | 1016.3 hPa | 0 mm | - | 556 W/m² | - |
| 1778012063 | 27.22° C | 52% | 1016.5 hPa | 0 mm | - | 526 W/m² | - |
| 1778011458 | 27.22° C | 53% | 1016.5 hPa | 0 mm | - | 568 W/m² | - |
| 1778010851 | 27.22° C | 51% | 1016.5 hPa | 0 mm | - | 564 W/m² | - |
| 1778010246 | 27.22° C | 51% | 1016.6 hPa | 0 mm | - | 639 W/m² | - |
| 1778008435 | 27.22° C | 52% | 1016.7 hPa | 0 mm | - | 724 W/m² | - |
| 1778007827 | 27.78° C | 52% | 1016.9 hPa | 0 mm | - | 726 W/m² | - |
* Rain latest hour (hover to see other rain measurements)
** Current wind speed in m/s (hover to see current wind gust speed)